Location: Newark
(41.0400°S, 62.7845°W)
Time: 22:30:48
(UTC+00:00)

Courier 1B Rocket - Pass Details

Date: 06 December 2021
Orbit: 920 x 1202 km, 28.2° (Epoch: 28 January)

Event Time Altitude Azimuth Distance (km) Brightness Sun altitude
Rises 17:48:54 0° 281° (W) 4,072 8.6 61.0°
Reaches altitude 10° 17:52:23 10° 295° (WNW) 3,129 8.3 60.4°
Maximum altitude 17:58:11 23° 343° (NNW) 2,315 7.7 59.5°
Drops below altitude 10° 18:03:58 10° 31° (NNE) 3,120 7.7 58.5°
Sets 18:07:27 0° 44° (NE) 4,058 8.1 57.9°
